"Sample Date","Sample Time","Sample Value","Units","Flow Rate","Laser Status","Micron Size 0","Counts/Channel 0","Micron Size 1","Counts/Channel 1","Micron Size 2","Counts/Channel 2","Micron Size 3","Counts/Channel 3","Micron Size 4","Counts/Channel 4","Micron Size 5","Counts/Channel 5","Micron Size 6","Counts/Channel 6","Micron Size 7","Counts/Channel 7","Micron Size 8","Counts/Channel 8","Micron Size 9","Counts/Channel 9","Micron Size 10","Counts/Channel 10","Micron Size 11","Counts/Channel 11","Micron Size 12","Counts/Channel 12","Micron Size 13","Counts/Channel 13","Micron Size 14","Counts/Channel 14","Micron Size 15","Counts/Channel 15","Micron Size 16","Counts/Channel 16","Micron Size 17","Counts/Channel 17","Micron Size 18","Counts/Channel 18","Micron Size 19","Counts/Channel 19","Micron Size 20","Counts/Channel 20","Micron Size 21","Counts/Channel 21","Micron Size 22","Counts/Channel 22","Micron Size 23","Counts/Channel 23","Micron Size 24","Counts/Channel 24","Micron Size 25","Counts/Channel 25","Micron Size 26","Counts/Channel 26","Micron Size 27","Counts/Channel 27","Micron Size 28","Counts/Channel 28","Micron Size 29","Counts/Channel 29","Micron Size 30","Counts/Channel 30","Micron Size 31","Counts/Channel 31"
"05/03/07","03:00:05",92003.000,"cc",28270.277,1,0.100,72088.000,0.200,17753.000,0.300,2089.000,0.500,69.000,1.000,4.000,5.000,0
"05/03/07","03:00:11",92003.000,"cc",28290.473,1,0.100,72219.000,0.200,17543.000,0.300,2167.000,0.500,69.000,1.000,5.000,5.000,0
"05/03/07","03:00:17",91828.000,"cc",28287.719,1,0.100,72146.000,0.200,17431.000,0.300,2184.000,0.500,65.000,1.000,2.000,5.000,0
"05/03/07","03:00:23",91377.000,"cc",28358.754,1,0.100,71680.000,0.200,17434.000,0.300,2169.000,0.500,90.000,1.000,4.000,5.000,0
"05/03/07","03:00:29",90683.000,"cc",28356.756,1,0.100,71012.000,0.200,17454.000,0.300,2152.000,0.500,63.000,1.000,2.000,5.000,0
"05/03/07","03:00:35",90088.000,"cc",28332.504,1,0.100,70633.000,0.200,17245.000,0.300,2127.000,0.500,79.000,1.000,4.000,5.000,0
"05/03/07","03:00:41",90385.000,"cc",28260.727,1,0.100,70985.000,0.200,17171.000,0.300,2164.000,0.500,62.000,1.000,3.000,5.000,0
"05/03/07","03:00:47",89587.000,"cc",28346.889,1,0.100,70147.000,0.200,17223.000,0.300,2145.000,0.500,69.000,1.000,3.000,5.000,0
"05/03/07","03:00:53",89362.000,"cc",28304.881,1,0.100,69931.000,0.200,17201.000,0.300,2136.000,0.500,89.000,1.000,5.000,5.000,0
"05/03/07","03:00:59",88640.000,"cc",28318.535,1,0.100,69661.000,0.200,16865.000,0.300,2042.000,0.500,65.000,1.000,7.000,5.000,0
"05/03/07","03:01:05",88823.000,"cc",28304.668,1,0.100,69646.000,0.200,17035.000,0.300,2070.000,0.500,70.000,1.000,2.000,5.000,0
"05/03/07","03:01:11",88163.000,"cc",28307.420,1,0.100,69124.000,0.200,16836.000,0.300,2119.000,0.500,80.000,1.000,4.000,5.000,0
"05/03/07","03:01:17",87774.000,"cc",28316.647,1,0.100,68929.000,0.200,16694.000,0.300,2072.000,0.500,75.000,1.000,4.000,5.000,0
"05/03/07","03:01:23",87829.000,"cc",28330.027,1,0.100,68858.000,0.200,16848.000,0.300,2036.000,0.500,80.000,1.000,7.000,5.000,0
"05/03/07","03:01:29",86923.000,"cc",28280.350,1,0.100,68186.000,0.200,16563.000,0.300,2094.000,0.500,76.000,1.000,4.000,5.000,0
"05/03/07","03:01:35",86629.000,"cc",28303.221,1,0.100,67847.000,0.200,16641.000,0.300,2072.000,0.500,67.000,1.000,2.000,5.000,0
"05/03/07","03:01:41",86351.000,"cc",28381.289,1,0.100,67900.000,0.200,16357.000,0.300,2011.000,0.500,74.000,1.000,9.000,5.000,0
"05/03/07","03:01:47",85851.000,"cc",28313.086,1,0.100,67472.000,0.200,16331.000,0.300,1974.000,0.500,72.000,1.000,2.000,5.000,0
"05/03/07","03:01:53",85644.000,"cc",28267.436,1,0.100,67329.000,0.200,16184.000,0.300,2043.000,0.500,83.000,1.000,5.000,5.000,0
"05/03/07","03:01:59",85505.000,"cc",28344.492,1,0.100,67128.000,0.200,16298.000,0.300,2001.000,0.500,73.000,1.000,5.000,5.000,0
"05/03/07","03:02:05",85802.000,"cc",28302.986,1,0.100,67050.000,0.200,16557.000,0.300,2125.000,0.500,67.000,1.000,3.000,5.000,0
"05/03/07","03:02:11",86320.000,"cc",28309.154,1,0.100,67586.000,0.200,16549.000,0.300,2107.000,0.500,73.000,1.000,5.000,5.000,0
"05/03/07","03:02:17",86170.000,"cc",28291.336,1,0.100,67646.000,0.200,16343.000,0.300,2102.000,0.500,75.000,1.000,4.000,5.000,0
"05/03/07","03:02:23",85677.000,"cc",28272.057,1,0.100,67205.000,0.200,16406.000,0.300,1981.000,0.500,77.000,1.000,8.000,5.000,0
"05/03/07","03:02:29",84912.000,"cc",28359.481,1,0.100,66746.000,0.200,16082.000,0.300,2015.000,0.500,63.000,1.000,6.000,5.000,0
"05/03/07","03:02:35",85033.000,"cc",28321.588,1,0.100,66806.000,0.200,16122.000,0.300,2018.000,0.500,81.000,1.000,6.000,5.000,0
"05/03/07","03:02:41",84353.000,"cc",28349.420,1,0.100,66308.000,0.200,15990.000,0.300,1973.000,0.500,72.000,1.000,10.000,5.000,0
"05/03/07","03:02:47",84770.000,"cc",28300.600,1,0.100,66677.000,0.200,15988.000,0.300,2031.000,0.500,72.000,1.000,2.000,5.000,0
"05/03/07","03:02:53",84283.000,"cc",28330.662,1,0.100,66068.000,0.200,16107.000,0.300,2028.000,0.500,73.000,1.000,7.000,5.000,0
"05/03/07","03:02:59",84030.000,"cc",28353.773,1,0.100,65655.000,0.200,16221.000,0.300,2068.000,0.500,79.000,1.000,7.000,5.000,0
"05/03/07","03:03:05",83311.000,"cc",28314.102,1,0.100,65129.000,0.200,16034.000,0.300,2065.000,0.500,76.000,1.000,7.000,5.000,0
"05/03/07","03:03:11",83495.000,"cc",28257.231,1,0.100,65520.000,0.200,15859.000,0.300,2025.000,0.500,86.000,1.000,5.000,5.000,0
"05/03/07","03:03:17",83516.000,"cc",28325.428,1,0.100,65531.000,0.200,15840.000,0.300,2066.000,0.500,75.000,1.000,4.000,5.000,0
"05/03/07","03:03:23",83099.000,"cc",28299.447,1,0.100,64983.000,0.200,15983.000,0.300,2052.000,0.500,76.000,1.000,5.000,5.000,0
"05/03/07","03:03:29",83448.000,"cc",28375.664,1,0.100,65604.000,0.200,15849.000,0.300,1918.000,0.500,71.000,1.000,6.000,5.000,0
"05/03/07","03:03:35",83265.000,"cc",28303.648,1,0.100,65402.000,0.200,15749.000,0.300,2032.000,0.500,78.000,1.000,4.000,5.000,0
"05/03/07","03:03:41",83053.000,"cc",28322.654,1,0.100,64891.000,0.200,16057.000,0.300,2021.000,0.500,78.000,1.000,6.000,5.000,0
"05/03/07","03:03:47",82664.000,"cc",28328.066,1,0.100,64893.000,0.200,15713.000,0.300,1991.000,0.500,64.000,1.000,3.000,5.000,0
"05/03/07","03:03:53",83048.000,"cc",28283.115,1,0.100,65414.000,0.200,15549.000,0.300,2000.000,0.500,78.000,1.000,7.000,5.000,0
"05/03/07","03:03:59",84064.000,"cc",28251.402,1,0.100,65810.000,0.200,16196.000,0.300,1987.000,0.500,65.000,1.000,6.000,5.000,0
"05/03/07","03:04:05",83571.000,"cc",28326.100,1,0.100,65479.000,0.200,15959.000,0.300,2061.000,0.500,70.000,1.000,2.000,5.000,0
"05/03/07","03:04:11",84445.000,"cc",28301.736,1,0.100,66225.000,0.200,16131.000,0.300,2019.000,0.500,66.000,1.000,4.000,5.000,0
"05/03/07","03:04:17",85323.000,"cc",28326.807,1,0.100,66875.000,0.200,16273.000,0.300,2109.000,0.500,61.000,1.000,5.000,5.000,0
"05/03/07","03:04:23",86180.000,"cc",28376.178,1,0.100,67595.000,0.200,16407.000,0.300,2104.000,0.500,67.000,1.000,7.000,5.000,0
"05/03/07","03:04:29",85467.000,"cc",28319.842,1,0.100,66821.000,0.200,16372.000,0.300,2196.000,0.500,74.000,1.000,4.000,5.000,0
"05/03/07","03:04:35",84513.000,"cc",28265.785,1,0.100,66450.000,0.200,15895.000,0.300,2095.000,0.500,65.000,1.000,8.000,5.000,0
"05/03/07","03:04:41",85222.000,"cc",28265.133,1,0.100,66905.000,0.200,16126.000,0.300,2115.000,0.500,75.000,1.000,1.000,5.000,0
"05/03/07","03:04:47",84485.000,"cc",28325.414,1,0.100,66200.000,0.200,16226.000,0.300,1976.000,0.500,76.000,1.000,7.000,5.000,0
"05/03/07","03:04:53",84280.000,"cc",28379.342,1,0.100,66096.000,0.200,16103.000,0.300,2014.000,0.500,59.000,1.000,8.000,5.000,0
"05/03/07","03:04:59",84391.000,"cc",28372.637,1,0.100,66282.000,0.200,16010.000,0.300,2022.000,0.500,68.000,1.000,9.000,5.000,0
"05/03/07","03:05:05",84803.000,"cc",28335.721,1,0.100,66328.000,0.200,16358.000,0.300,2057.000,0.500,54.000,1.000,6.000,5.000,0
"05/03/07","03:05:11",84193.000,"cc",28285.414,1,0.100,65845.000,0.200,16171.000,0.300,2085.000,0.500,85.000,1.000,7.000,5.000,0
"05/03/07","03:05:17",84631.000,"cc",28265.512,1,0.100,66534.000,0.200,15981.000,0.300,2042.000,0.500,70.000,1.000,4.000,5.000,0
"05/03/07","03:05:23",84416.000,"cc",28292.197,1,0.100,66105.000,0.200,16213.000,0.300,2013.000,0.500,82.000,1.000,3.000,5.000,0
"05/03/07","03:05:29",84847.000,"cc",28278.158,1,0.100,66748.000,0.200,16023.000,0.300,2009.000,0.500,66.000,1.000,1.000,5.000,0
"05/03/07","03:05:35",83777.000,"cc",28344.334,1,0.100,65805.000,0.200,15911.000,0.300,1990.000,0.500,67.000,1.000,4.000,5.000,0
"05/03/07","03:05:41",83898.000,"cc",28381.029,1,0.100,65852.000,0.200,15942.000,0.300,2037.000,0.500,62.000,1.000,5.000,5.000,0
"05/03/07","03:05:47",83522.000,"cc",28323.836,1,0.100,65549.000,0.200,15828.000,0.300,2064.000,0.500,74.000,1.000,7.000,5.000,0
"05/03/07","03:05:53",83514.000,"cc",28314.744,1,0.100,65490.000,0.200,15966.000,0.300,1974.000,0.500,77.000,1.000,7.000,5.000,0
"05/03/07","03:05:59",82720.000,"cc",28382.260,1,0.100,64873.000,0.200,15751.000,0.300,2007.000,0.500,77.000,1.000,12.000,5.000,0
"05/03/07","03:06:05",83739.000,"cc",28309.256,1,0.100,65664.000,0.200,15953.000,0.300,2041.000,0.500,75.000,1.000,6.000,5.000,0
"05/03/07","03:06:11",82828.000,"cc",28316.279,1,0.100,65082.000,0.200,15694.000,0.300,1969.000,0.500,78.000,1.000,5.000,5.000,0
"05/03/07","03:06:17",82706.000,"cc",28277.711,1,0.100,65102.000,0.200,15577.000,0.300,1955.000,0.500,62.000,1.000,10.000,5.000,0
"05/03/07","03:06:23",81903.000,"cc",28284.811,1,0.100,64304.000,0.200,15528.000,0.300,1984.000,0.500,80.000,1.000,7.000,5.000,0
"05/03/07","03:06:29",82061.000,"cc",28315.615,1,0.100,64406.000,0.200,15598.000,0.300,1961.000,0.500,90.000,1.000,6.000,5.000,0
"05/03/07","03:06:35",82380.000,"cc",28301.316,1,0.100,64684.000,0.200,15583.000,0.300,2031.000,0.500,70.000,1.000,12.000,5.000,0
"05/03/07","03:06:41",82886.000,"cc",28297.565,1,0.100,65049.000,0.200,15713.000,0.300,2051.000,0.500,68.000,1.000,5.000,5.000,0
"05/03/07","03:06:47",82580.000,"cc",28286.190,1,0.100,64794.000,0.200,15714.000,0.300,2005.000,0.500,62.000,1.000,5.000,5.000,0
"05/03/07","03:06:53",82751.000,"cc",28344.746,1,0.100,64941.000,0.200,15747.000,0.300,1976.000,0.500,84.000,1.000,3.000,5.000,0
"05/03/07","03:06:59",82664.000,"cc",28358.131,1,0.100,64910.000,0.200,15648.000,0.300,2039.000,0.500,65.000,1.000,2.000,5.000,0
"05/03/07","03:07:05",81911.000,"cc",28336.006,1,0.100,64228.000,0.200,15634.000,0.300,1974.000,0.500,69.000,1.000,6.000,5.000,0
"05/03/07","03:07:11",81891.000,"cc",28291.334,1,0.100,64238.000,0.200,15532.000,0.300,2060.000,0.500,58.000,1.000,3.000,5.000,0
"05/03/07","03:07:17",81410.000,"cc",28280.932,1,0.100,64070.000,0.200,15353.000,0.300,1912.000,0.500,68.000,1.000,7.000,5.000,0
"05/03/07","03:07:23",82032.000,"cc",28302.734,1,0.100,64516.000,0.200,15499.000,0.300,1955.000,0.500,57.000,1.000,5.000,5.000,0
"05/03/07","03:07:29",82173.000,"cc",28377.305,1,0.100,64512.000,0.200,15626.000,0.300,1968.000,0.500,64.000,1.000,3.000,5.000,0
"05/03/07","03:07:35",82394.000,"cc",28303.764,1,0.100,64710.000,0.200,15619.000,0.300,1988.000,0.500,76.000,1.000,1.000,5.000,0
"05/03/07","03:07:41",82075.000,"cc",28315.951,1,0.100,64524.000,0.200,15469.000,0.300,2008.000,0.500,70.000,1.000,4.000,5.000,0
"05/03/07","03:07:47",81766.000,"cc",28309.205,1,0.100,64112.000,0.200,15648.000,0.300,1936.000,0.500,69.000,1.000,1.000,5.000,0
"05/03/07","03:07:53",81725.000,"cc",28289.623,1,0.100,64106.000,0.200,15634.000,0.300,1911.000,0.500,68.000,1.000,6.000,5.000,0
"05/03/07","03:07:59",81302.000,"cc",28303.826,1,0.100,63844.000,0.200,15410.000,0.300,1981.000,0.500,61.000,1.000,6.000,5.000,0
"05/03/07","03:08:05",81148.000,"cc",28384.832,1,0.100,63639.000,0.200,15486.000,0.300,1955.000,0.500,63.000,1.000,5.000,5.000,0
"05/03/07","03:08:11",81555.000,"cc",28343.160,1,0.100,64144.000,0.200,15322.000,0.300,2001.000,0.500,80.000,1.000,8.000,5.000,0
"05/03/07","03:08:17",80785.000,"cc",28313.717,1,0.100,63342.000,0.200,15449.000,0.300,1920.000,0.500,67.000,1.000,7.000,5.000,0
"05/03/07","03:08:23",81236.000,"cc",28275.234,1,0.100,63856.000,0.200,15345.000,0.300,1968.000,0.500,61.000,1.000,6.000,5.000,0
"05/03/07","03:08:29",81269.000,"cc",28331.100,1,0.100,63906.000,0.200,15398.000,0.300,1892.000,0.500,68.000,1.000,5.000,5.000,0
"05/03/07","03:08:35",80587.000,"cc",28348.678,1,0.100,63540.000,0.200,15114.000,0.300,1850.000,0.500,75.000,1.000,8.000,5.000,0
"05/03/07","03:08:41",80483.000,"cc",28271.258,1,0.100,63013.000,0.200,15548.000,0.300,1846.000,0.500,70.000,1.000,6.000,5.000,0
"05/03/07","03:08:47",81216.000,"cc",28330.359,1,0.100,63927.000,0.200,15313.000,0.300,1918.000,0.500,56.000,1.000,2.000,5.000,0
"05/03/07","03:08:53",80483.000,"cc",28276.934,1,0.100,63199.000,0.200,15218.000,0.300,1991.000,0.500,72.000,1.000,3.000,5.000,0
"05/03/07","03:08:59",79847.000,"cc",28343.453,1,0.100,62792.000,0.200,15145.000,0.300,1843.000,0.500,61.000,1.000,6.000,5.000,0
"05/03/07","03:09:05",79379.000,"cc",28299.363,1,0.100,62560.000,0.200,14856.000,0.300,1912.000,0.500,48.000,1.000,3.000,5.000,0
"05/03/07","03:09:11",79517.000,"cc",28319.342,1,0.100,62513.000,0.200,15108.000,0.300,1831.000,0.500,62.000,1.000,3.000,5.000,0
"05/03/07","03:09:17",79440.000,"cc",28332.555,1,0.100,62675.000,0.200,14815.000,0.300,1880.000,0.500,64.000,1.000,6.000,5.000,0
"05/03/07","03:09:23",78774.000,"cc",28345.889,1,0.100,61536.000,0.200,15296.000,0.300,1878.000,0.500,59.000,1.000,5.000,5.000,0
"05/03/07","03:09:29",79388.000,"cc",28303.688,1,0.100,62556.000,0.200,14948.000,0.300,1824.000,0.500,59.000,1.000,1.000,5.000,0
"05/03/07","03:09:35",78537.000,"cc",28366.092,1,0.100,61852.000,0.200,14741.000,0.300,1871.000,0.500,67.000,1.000,6.000,5.000,0
"05/03/07","03:09:41",78202.000,"cc",28312.010,1,0.100,61336.000,0.200,14950.000,0.300,1845.000,0.500,64.000,1.000,7.000,5.000,0
"05/03/07","03:09:47",78487.000,"cc",28326.494,1,0.100,61560.000,0.200,15006.000,0.300,1850.000,0.500,66.000,1.000,5.000,5.000,0
"05/03/07","03:09:53",78276.000,"cc",28304.264,1,0.100,61445.000,0.200,14932.000,0.300,1837.000,0.500,56.000,1.000,6.000,5.000,0
"05/03/07","03:09:59",77889.000,"cc",28273.887,1,0.100,61236.000,0.200,14741.000,0.300,1829.000,0.500,76.000,1.000,7.000,5.000,0
"05/03/07","03:10:05",77878.000,"cc",28265.727,1,0.100,61124.000,0.200,14857.000,0.300,1820.000,0.500,65.000,1.000,12.000,5.000,0
"05/03/07","03:10:11",77254.000,"cc",28289.156,1,0.100,60845.000,0.200,14490.000,0.300,1872.000,0.500,44.000,1.000,3.000,5.000,0
"05/03/07","03:10:17",77361.000,"cc",28279.223,1,0.100,60627.000,0.200,14812.000,0.300,1859.000,0.500,59.000,1.000,4.000,5.000,0
"05/03/07","03:10:23",77151.000,"cc",28325.525,1,0.100,60625.000,0.200,14671.000,0.300,1784.000,0.500,66.000,1.000,5.000,5.000,0
"05/03/07","03:10:29",76918.000,"cc",28333.592,1,0.100,60429.000,0.200,14677.000,0.300,1751.000,0.500,56.000,1.000,5.000,5.000,0
"05/03/07","03:10:35",76551.000,"cc",28380.340,1,0.100,60239.000,0.200,14389.000,0.300,1838.000,0.500,85.000,1.000,0,5.000,0
"05/03/07","03:10:41",76040.000,"cc",28346.016,1,0.100,59867.000,0.200,14303.000,0.300,1803.000,0.500,65.000,1.000,2.000,5.000,0
"05/03/07","03:10:47",76268.000,"cc",28269.252,1,0.100,59907.000,0.200,14508.000,0.300,1789.000,0.500,62.000,1.000,2.000,5.000,0
"05/03/07","03:10:53",75543.000,"cc",28271.795,1,0.100,59262.000,0.200,14464.000,0.300,1743.000,0.500,68.000,1.000,6.000,5.000,0
"05/03/07","03:10:59",75631.000,"cc",28364.615,1,0.100,59354.000,0.200,14441.000,0.300,1779.000,0.500,55.000,1.000,2.000,5.000,0
"05/03/07","03:11:05",74432.000,"cc",28329.174,1,0.100,58621.000,0.200,13954.000,0.300,1803.000,0.500,53.000,1.000,1.000,5.000,0
"05/03/07","03:11:11",74643.000,"cc",28378.914,1,0.100,58501.000,0.200,14248.000,0.300,1834.000,0.500,56.000,1.000,4.000,5.000,0
"05/03/07","03:11:17",74159.000,"cc",28238.004,1,0.100,58002.000,0.200,14323.000,0.300,1768.000,0.500,63.000,1.000,3.000,5.000,0
"05/03/07","03:11:23",73734.000,"cc",28310.854,1,0.100,57861.000,0.200,14054.000,0.300,1748.000,0.500,67.000,1.000,4.000,5.000,0
"05/03/07","03:11:29",73988.000,"cc",28334.922,1,0.100,58238.000,0.200,13895.000,0.300,1797.000,0.500,56.000,1.000,2.000,5.000,0
"05/03/07","03:11:35",73489.000,"cc",28339.662,1,0.100,57825.000,0.200,13887.000,0.300,1716.000,0.500,53.000,1.000,8.000,5.000,0
"05/03/07","03:11:41",73089.000,"cc",28308.670,1,0.100,57477.000,0.200,13863.000,0.300,1708.000,0.500,39.000,1.000,2.000,5.000,0
"05/03/07","03:11:47",72400.000,"cc",28330.191,1,0.100,56746.000,0.200,13815.000,0.300,1772.000,0.500,63.000,1.000,4.000,5.000,0
"05/03/07","03:11:53",71956.000,"cc",28292.986,1,0.100,56808.000,0.200,13447.000,0.300,1645.000,0.500,51.000,1.000,5.000,5.000,0
"05/03/07","03:11:59",71707.000,"cc",28356.693,1,0.100,56358.000,0.200,13663.000,0.300,1604.000,0.500,74.000,1.000,8.000,5.000,0
"05/03/07","03:12:05",71747.000,"cc",28266.412,1,0.100,56559.000,0.200,13488.000,0.300,1643.000,0.500,52.000,1.000,5.000,5.000,0
"05/03/07","03:12:11",71526.000,"cc",28244.598,1,0.100,56168.000,0.200,13643.000,0.300,1656.000,0.500,52.000,1.000,7.000,5.000,0
"05/03/07","03:12:17",70774.000,"cc",28308.033,1,0.100,55637.000,0.200,13357.000,0.300,1706.000,0.500,71.000,1.000,3.000,5.000,0
"05/03/07","03:12:23",70371.000,"cc",28331.014,1,0.100,55470.000,0.200,13221.000,0.300,1605.000,0.500,69.000,1.000,6.000,5.000,0
"05/03/07","03:12:29",69533.000,"cc",28339.813,1,0.100,54758.000,0.200,13136.000,0.300,1568.000,0.500,68.000,1.000,3.000,5.000,0
"05/03/07","03:12:35",68936.000,"cc",28373.504,1,0.100,54379.000,0.200,12916.000,0.300,1571.000,0.500,61.000,1.000,9.000,5.000,0
"05/03/07","03:12:41",68979.000,"cc",28280.352,1,0.100,54356.000,0.200,12970.000,0.300,1586.000,0.500,61.000,1.000,6.000,5.000,0
"05/03/07","03:12:47",68132.000,"cc",28363.090,1,0.100,53692.000,0.200,12832.000,0.300,1548.000,0.500,53.000,1.000,7.000,5.000,0
"05/03/07","03:12:53",68061.000,"cc",28292.215,1,0.100,53654.000,0.200,12679.000,0.300,1660.000,0.500,61.000,1.000,7.000,5.000,0
"05/03/07","03:12:59",68519.000,"cc",28317.147,1,0.100,54047.000,0.200,12766.000,0.300,1627.000,0.500,67.000,1.000,12.000,5.000,0
"05/03/07","03:13:05",68402.000,"cc",28346.746,1,0.100,53945.000,0.200,12781.000,0.300,1610.000,0.500,59.000,1.000,7.000,5.000,0
"05/03/07","03:13:11",67728.000,"cc",28336.627,1,0.100,53396.000,0.200,12695.000,0.300,1575.000,0.500,59.000,1.000,3.000,5.000,0
"05/03/07","03:13:17",67808.000,"cc",28226.869,1,0.100,53444.000,0.200,12680.000,0.300,1614.000,0.500,66.000,1.000,4.000,5.000,0
"05/03/07","03:13:23",66878.000,"cc",28340.213,1,0.100,52569.000,0.200,12575.000,0.300,1656.000,0.500,70.000,1.000,8.000,5.000,0
"05/03/07","03:13:29",66841.000,"cc",28356.902,1,0.100,52620.000,0.200,12522.000,0.300,1634.000,0.500,55.000,1.000,10.000,5.000,0
"05/03/07","03:13:35",66367.000,"cc",28284.750,1,0.100,52414.000,0.200,12336.000,0.300,1555.000,0.500,56.000,1.000,6.000,5.000,0
"05/03/07","03:13:41",66373.000,"cc",28286.617,1,0.100,52363.000,0.200,12382.000,0.300,1566.000,0.500,58.000,1.000,4.000,5.000,0
"05/03/07","03:13:47",66189.000,"cc",28296.563,1,0.100,52050.000,0.200,12523.000,0.300,1550.000,0.500,61.000,1.000,5.000,5.000,0
"05/03/07","03:13:53",65808.000,"cc",28384.629,1,0.100,51738.000,0.200,12516.000,0.300,1488.000,0.500,55.000,1.000,11.000,5.000,0
"05/03/07","03:13:59",65664.000,"cc",28300.260,1,0.100,51582.000,0.200,12451.000,0.300,1554.000,0.500,69.000,1.000,8.000,5.000,0
"05/03/07","03:14:05",65560.000,"cc",28264.154,1,0.100,51661.000,0.200,12287.000,0.300,1549.000,0.500,55.000,1.000,8.000,5.000,0
"05/03/07","03:14:11",65314.000,"cc",28363.906,1,0.100,51494.000,0.200,12291.000,0.300,1466.000,0.500,60.000,1.000,3.000,5.000,0
"05/03/07","03:14:17",65116.000,"cc",28359.981,1,0.100,51334.000,0.200,12215.000,0.300,1504.000,0.500,55.000,1.000,8.000,5.000,0
"05/03/07","03:14:23",65143.000,"cc",28277.539,1,0.100,51282.000,0.200,12271.000,0.300,1523.000,0.500,64.000,1.000,3.000,5.000,0
"05/03/07","03:14:29",64774.000,"cc",28270.514,1,0.100,51149.000,0.200,12085.000,0.300,1476.000,0.500,59.000,1.000,5.000,5.000,0
"05/03/07","03:14:35",64778.000,"cc",28308.715,1,0.100,51035.000,0.200,12246.000,0.300,1447.000,0.500,46.000,1.000,4.000,5.000,0
"05/03/07","03:14:41",64263.000,"cc",28363.096,1,0.100,50677.000,0.200,12019.000,0.300,1505.000,0.500,52.000,1.000,10.000,5.000,0
"05/03/07","03:14:47",64440.000,"cc",28318.650,1,0.100,50728.000,0.200,12147.000,0.300,1497.000,0.500,63.000,1.000,5.000,5.000,0
"05/03/07","03:14:53",63118.000,"cc",28339.020,1,0.100,49795.000,0.200,11802.000,0.300,1463.000,0.500,47.000,1.000,11.000,5.000,0
"05/03/07","03:14:59",63995.000,"cc",28321.805,1,0.100,50486.000,0.200,12018.000,0.300,1423.000,0.500,58.000,1.000,10.000,5.000,0
"05/03/07","03:15:05",63010.000,"cc",28288.463,1,0.100,49720.000,0.200,11803.000,0.300,1409.000,0.500,72.000,1.000,6.000,5.000,0
"05/03/07","03:15:11",63394.000,"cc",28286.113,1,0.100,49903.000,0.200,11907.000,0.300,1515.000,0.500,60.000,1.000,9.000,5.000,0
"05/03/07","03:15:17",63614.000,"cc",28311.443,1,0.100,50092.000,0.200,11997.000,0.300,1449.000,0.500,67.000,1.000,9.000,5.000,0
"05/03/07","03:15:23",63655.000,"cc",28336.844,1,0.100,50302.000,0.200,11753.000,0.300,1541.000,0.500,57.000,1.000,2.000,5.000,0
"05/03/07","03:15:29",63026.000,"cc",28266.772,1,0.100,49514.000,0.200,12023.000,0.300,1429.000,0.500,53.000,1.000,7.000,5.000,0
"05/03/07","03:15:35",62938.000,"cc",28339.721,1,0.100,49485.000,0.200,11895.000,0.300,1497.000,0.500,55.000,1.000,6.000,5.000,0
"05/03/07","03:15:41",62245.000,"cc",28338.686,1,0.100,48873.000,0.200,11827.000,0.300,1472.000,0.500,68.000,1.000,5.000,5.000,0
"05/03/07","03:15:47",62172.000,"cc",28339.049,1,0.100,49120.000,0.200,11545.000,0.300,1438.000,0.500,63.000,1.000,6.000,5.000,0
"05/03/07","03:15:53",61765.000,"cc",28330.672,1,0.100,48735.000,0.200,11540.000,0.300,1432.000,0.500,55.000,1.000,3.000,5.000,0
"05/03/07","03:15:59",62145.000,"cc",28293.623,1,0.100,48843.000,0.200,11831.000,0.300,1419.000,0.500,48.000,1.000,4.000,5.000,0
"05/03/07","03:16:05",61984.000,"cc",28327.137,1,0.100,49064.000,0.200,11449.000,0.300,1404.000,0.500,63.000,1.000,4.000,5.000,0
"05/03/07","03:16:11",62079.000,"cc",28292.875,1,0.100,48818.000,0.200,11679.000,0.300,1532.000,0.500,46.000,1.000,4.000,5.000,0
"05/03/07","03:16:17",62475.000,"cc",28300.297,1,0.100,49192.000,0.200,11700.000,0.300,1526.000,0.500,53.000,1.000,4.000,5.000,0
"05/03/07","03:16:23",62379.000,"cc",28340.678,1,0.100,49223.000,0.200,11698.000,0.300,1389.000,0.500,60.000,1.000,9.000,5.000,0
"05/03/07","03:16:29",62305.000,"cc",28277.568,1,0.100,49118.000,0.200,11728.000,0.300,1396.000,0.500,60.000,1.000,3.000,5.000,0
"05/03/07","03:16:35",62288.000,"cc",28317.641,1,0.100,49016.000,0.200,11751.000,0.300,1452.000,0.500,62.000,1.000,7.000,5.000,0
"05/03/07","03:16:41",62902.000,"cc",28306.977,1,0.100,49587.000,0.200,11766.000,0.300,1493.000,0.500,50.000,1.000,6.000,5.000,0
"05/03/07","03:16:47",63176.000,"cc",28337.799,1,0.100,49785.000,0.200,11810.000,0.300,1521.000,0.500,54.000,1.000,6.000,5.000,0
"05/03/07","03:16:53",63277.000,"cc",28363.658,1,0.100,49792.000,0.200,11938.000,0.300,1480.000,0.500,63.000,1.000,4.000,5.000,0
"05/03/07","03:16:59",63224.000,"cc",28364.379,1,0.100,49759.000,0.200,11867.000,0.300,1527.000,0.500,66.000,1.000,5.000,5.000,0
"05/03/07","03:17:05",63010.000,"cc",28309.994,1,0.100,49683.000,0.200,11856.000,0.300,1423.000,0.500,40.000,1.000,8.000,5.000,0
"05/03/07","03:17:11",63857.000,"cc",28264.693,1,0.100,50401.000,0.200,12007.000,0.300,1389.000,0.500,50.000,1.000,10.000,5.000,0
"05/03/07","03:17:17",63581.000,"cc",28295.846,1,0.100,50270.000,0.200,11754.000,0.300,1502.000,0.500,51.000,1.000,4.000,5.000,0
"05/03/07","03:17:23",63929.000,"cc",28275.336,1,0.100,50366.000,0.200,12023.000,0.300,1473.000,0.500,59.000,1.000,8.000,5.000,0